sat.trackr.live / text

‹ back to catalog

BEIDOU-3 M10 (C30)

NORAD 43246 · 2018-029B

PAYLOAD ACTIVE UNKNOWN

§ Identity

Operator
Country
PRC
Launch date
2018-03-29
Launch site
XICLF
Launch vehicle
Mass (kg)
RCS (m²)

Purposes: nav

External: N2YO · Heavens-Above · Gunter

§ Orbital elements

Epoch: 2026-09-11T20:52:51.984768Z

Period
773.24 min
Inclination
54.1104°
Eccentricity
0.0002633
Mean motion
1.86229001 rev/d
Perigee alt
21,520.9 km
Apogee alt
21,535.6 km
Semi-major
27,906.4 km
B*
0.0000e+0
RAAN
296.9362°
Arg perigee
18.1230°
Mean anomaly
341.9524°
Rev number
5,749

§ Raw data

BEIDOU-3 M10 (C30)1 43246U 18029B   26254.87004612 -.00000052  00000+0  00000+0 0  99922 43246  54.1104 296.9362 0002633  18.1230 341.9524  1.86229001 57494

JSON: /api/v1/satellites/43246 · /tle

For live sub-satellite position, see the globe view (requires WebGL).

§ Visibility from observer

Set your observer location to see the next 7 days of passes ≥ 10°. The values pass through the URL so the page stays shareable.

No JS? Fill the form by hand. The geolocation button needs JavaScript.